TELLICO Weather Reports


time (UTC)temp
F
wind
direction
speed
knots
gust
knots
rain 1hr
in
rain 24hr
in
rain mn
in
humidity
%
barometer
mb
20260504041537 51 0 0.0 0.0 0.00 0.00 0.00 73 1018.1
20260504040042 52 0 0.0 0.0 0.00 0.00 0.00 72 1018.1
20260504034546 53 0 0.0 0.0 0.00 0.00 0.00 71 1017.9
20260504033037 53 0 0.0 0.0 0.00 0.00 0.00 70 1017.7
20260504031547 54 0 0.0 0.0 0.00 0.00 0.00 68 1017.9
20260504030101 55 0 0.0 0.0 0.00 0.00 0.00 67 1017.8
20260504024540 55 0 0.0 0.0 0.00 0.00 0.00 66 1017.7
20260504023038 56 0 0.0 0.0 0.00 0.00 0.00 65 1017.5
20260504021544 56 0 0.0 0.0 0.00 0.00 0.00 66 1017.5
20260504020038 56 0 0.0 0.0 0.00 0.00 0.00 64 1017.2
20260504014537 57 0 0.0 0.0 0.00 0.00 0.00 63 1017.3
20260504013038 57 0 0.0 0.0 0.00 0.00 0.00 62 1017.2
20260504011541 58 0 0.0 0.0 0.00 0.00 0.00 62 1017.4
20260504010045 59 0 0.0 0.0 0.00 0.00 0.00 60 1017.2
20260504004543 60 0 0.0 0.9 0.00 0.00 0.00 58 1017.2
20260504003037 61 0 0.0 0.0 0.00 0.00 0.00 56 1016.7
20260504001539 62 0 0.0 0.9 0.00 0.00 0.00 54 1016.9
20260504000037 63 0 0.0 0.0 0.00 0.00 0.00 52 1017.0
20260503234540 64 0 0.0 0.9 0.00 0.00 0.00 50 1017.2
20260503233037 64 0 0.0 1.7 0.00 0.00 0.00 44 1017.3
20260503231538 64 0 0.0 3.5 0.00 0.00 0.00 42 1017.4
20260503230053 65 0 0.0 2.6 0.00 0.00 0.00 42 1017.5
20260503224537 65 0 0.0 2.6 0.00 0.00 0.00 42 1017.6
20260503223036 65 0 0.0 4.3 0.00 0.00 0.00 43 1017.6
20260503221547 65 0 0.0 2.6 0.00 0.00 0.00 40 1017.8
20260503220042 66 335 0.9 2.6 0.00 0.00 0.00 41 1018.0
20260503214551 66 115 0.9 3.5 0.00 0.00 0.00 40 1018.1
20260503213040 67 277 0.9 2.6 0.00 0.00 0.00 39 1018.2
20260503211537 67 0 0.0 2.6 0.00 0.00 0.00 38 1018.4
20260503210041 67 75 0.0 2.6 0.00 0.00 0.00 40 1018.6
20260503204544 68 178 0.9 3.5 0.00 0.00 0.00 40 1018.7
20260503203039 68 0 0.9 4.3 0.00 0.00 0.00 38 1019.0
20260503201541 68 133 0.9 3.5 0.00 0.00 0.00 40 1019.2
20260503200038 68 134 0.9 3.5 0.00 0.00 0.00 39 1019.6
20260503194542 69 297 0.9 5.2 0.00 0.00 0.00 38 1019.8
20260503193037 69 108 0.9 3.5 0.00 0.00 0.00 40 1019.9
20260503191540 69 232 0.0 3.5 0.00 0.00 0.00 38 1020.1
20260503190045 68 0 0.0 3.5 0.00 0.00 0.00 38 1020.3
20260503184539 69 352 0.9 2.6 0.00 0.00 0.00 38 1020.6
20260503183042 67 0 0.9 2.6 0.00 0.00 0.00 40 1020.7
20260503181556 67 211 0.9 2.6 0.00 0.00 0.00 41 1020.9
20260503180046 65 302 0.9 3.5 0.00 0.00 0.00 39 1021.0
20260503174536 65 288 0.9 3.5 0.00 0.00 0.00 40 1021.3
20260503173041 65 308 0.9 2.6 0.00 0.00 0.00 39 1021.4
20260503171538 64 323 0.9 4.3 0.00 0.00 0.00 41 1021.4
20260503081539 45 0 0.0 0.0 0.00 0.00 0.00 81 1020.1
20260503071537 48 0 0.0 0.0 0.00 0.00 0.00 77 1019.5
20260503054540 49 326 0.0 0.9 0.00 0.00 0.00 73 1019.2
20260503053034 50 326 0.0 0.9 0.00 0.00 0.00 71 1019.2
20260503051539 50 0 0.0 0.0 0.00 0.00 0.00 70 1018.8
20260503050038 51 0 0.0 0.9 0.00 0.00 0.00 70 1018.9
20260503044557 51 0 0.0 0.9 0.00 0.00 0.00 68 1019.0
20260503043037 52 326 0.0 1.7 0.00 0.00 0.00 67 1019.0